weather.gov     
National Weather Service

Regional Weather Roundup
NWS Homepage
This page is being discontinued on March 12, 2014.
The same data is available at this site. Please update your bookmarks.
Thank you, and we apologize for the inconvenience.
Please send an email to SR-SRH.Webmaster@noaa.gov with any concerns.


Current Version
Previous Version:    01  02  03  04  05  06  07  08  09  10  11  12  13  14  15  16  17  18  19  20  21  22  23  24  25  26  27  28  29  30  
   31  32  33  34  35  36  37  38  39  40  41  42  43  44  45  46  47  48  49  50  51  52  53  54  55  56  57  58  59  60  
[Printable]
317
ASUS44 KSJT 200810
RWRSJT
WEST CENTRAL TEXAS REGIONAL WEATHER ROUNDUP
NATIONAL WEATHER SERVICE SAN ANGELO TX
200 AM CST SAT DEC 20 2014

NOTE: "FAIR" INDICATES FEW OR NO CLOUDS BELOW 12,000 FEET WITH NO
SIGNIFICANT WEATHER AND/OR OBSTRUCTIONS TO VISIBILITY.

TXZ049-054-064>066-071>073-076>078-098-099-113-114-127-128-139-140-
154-155-168>170-200900
...LOCATIONS ACROSS WEST CENTRAL TEXAS...

CITY           SKY/WX    TMP DP  RH WIND       PRES   REMARKS
SAN ANGELO     CLOUDY    43  39  86 S5        30.18R
ABILENE        CLOUDY    45  39  79 CALM      30.19F
DYESS AFB      CLOUDY    45  37  75 S3        30.19S
JUNCTION       CLOUDY    46  43  89 E5        30.18S
SWEETWATER     CLOUDY    44  38  78 CALM      30.21S
BROWNWOOD      CLOUDY    46  43  87 E6        30.19S
COLEMAN        CLOUDY    46  44  93 N6        30.18F
SONORA         CLEAR     39  37  93 CALM      30.21S
OZONA          PTSUNNY   32  32 100 N5        30.19S WCI  27
BRADY          NOT AVBL
$$

TEXAS PANHANDLE/OKLAHOMA PANHANDLE

CITY           SKY/WX    TMP DP  RH WIND       PRES   REMARKS
AMARILLO       CLOUDY    36  33  89 SW10      30.13S WCI  28
BORGER         CLEAR     37  33  85 SW8       30.13S WCI  31
CANADIAN       CLOUDY    42  38  84 SW8       30.12F WCI  37
DALHART        FOG       24  22  91 SW5       30.10F VSB 1/4 WCI  18
DUMAS          SUNNY     26  25  96 SW7       30.11S FOG     WCI  18
GUYMON         NOT AVBL
HEREFORD       CLOUDY    34  34  99 SW8       30.14S WCI  28
PAMPA          CLOUDY    37  35  94 SW12      30.13S WCI  29
PERRYTON       CLOUDY    39  36  87 SW10      30.10F WCI  32
$$

SOUTHERN PANHANDLE/SOUTH PLAINS/ROLLING PLAINS

CITY           SKY/WX    TMP DP  RH WIND       PRES   REMARKS
LUBBOCK        CLOUDY    38  36  92 S9        30.15F WCI  31
SNYDER         CLOUDY    42  37  83 SE3       30.18F
CHILDRESS      CLOUDY    42  40  92 S8        30.18S WCI  37
SEMINOLE       CLOUDY    36  35  99 CALM      30.17S FOG
$$

PERMIAN BASIN

CITY           SKY/WX    TMP DP  RH WIND       PRES   REMARKS
MIDLAND        CLEAR     34  32  92 E3        30.15F FOG
ODESSA         PTCLDY    34  31  88 SE5       30.16F FOG     WCI  30
WINK           CLEAR     34  30  85 E5        30.14F WCI  30
$$

FAR WEST/SOUTHWEST MOUNTAINS/TRANS PECOS

CITY           SKY/WX    TMP DP  RH WIND       PRES   REMARKS
ALPINE         SUNNY     32  27  80 SW9       30.22S WCI  24
DRYDEN           N/A     45  40  82 N5        30.15R
EL PASO        CLEAR     38  28  67 CALM      30.15F
FORT STOCKTON  CLEAR     37  31  78 SW6       30.15S WCI  32
GUADALUPE PASS NOT AVBL
MARFA          CLEAR     25  19  80 N5        30.18S WCI  19
PECOS          SUNNY     33  28  80 CALM      30.16S
$$

DALLAS/FORT WORTH METROPLEX

CITY           SKY/WX    TMP DP  RH WIND       PRES   REMARKS
DFW AIRPORT    CLOUDY    46  42  86 N9        30.19F
FTW MEACHAM    CLOUDY    46  42  86 N8        30.20S FOG
DAL-EXECUTIVE  CLOUDY    48  44  86 NW8       30.19S
GRAND PRAIRIE  CLOUDY    47  45  92 N6        30.21S
ADDISON        CLOUDY    46  46 100 N8        30.22S FOG
MESQUITE       CLOUDY    47  45  94 N3        30.21R
LANCASTER      CLOUDY    47  44  90 CALM      30.21R FOG
$$

NORTH CENTRAL TEXAS

CITY           SKY/WX    TMP DP  RH WIND       PRES   REMARKS
SHRMAN/DENISON CLOUDY    44  43  97 CALM      30.22S
GAINESVILLE    CLOUDY    43  39  88 N5        30.23S WCI  40
BRIDGEPORT     CLOUDY    45  40  85 CALM      30.24S
DENTON         CLOUDY    45  40  82 N5        30.21F
WAXAHACHIE     CLOUDY    46  46 100 N3        30.21R FOG
GRANBURY       CLOUDY    47  42  83 NW5       30.22S
$$

WESTERN NORTH TEXAS

CITY           SKY/WX    TMP DP  RH WIND       PRES   REMARKS
WICHITA FALLS  CLOUDY    43  40  89 S3        30.21S
VERNON         CLOUDY    45  37  75 S3        30.22R
BRECKENRIDGE   CLOUDY    46  41  84 CALM      30.20S
COMANCHE       CLOUDY    45  45 100 NE3       30.19S
$$

CENTRAL AND SOUTH CENTRAL TEXAS

CITY           SKY/WX    TMP DP  RH WIND       PRES   REMARKS
AUSTIN/BERGSTM CLOUDY    50  45  83 N12       30.18S
WACO           CLOUDY    48  45  89 N8        30.20R
HILLSBORO      CLOUDY    48  45  90 N6        30.19F FOG
TEMPLE         CLOUDY    48  41  76 N8        30.18S
KILLEEN-GRAY   CLOUDY    46  45  97 N7        30.18F
FORT HOOD      CLOUDY    47  45  94 N8        30.18S
GEORGETOWN     CLOUDY    48  45  87 NW6       30.18S
LAGO VISTA     CLOUDY    47  44  91 CALM      30.19R
SAN MARCOS     CLOUDY    48  43  81 N9        30.18S
NEW BRAUNFELS  CLOUDY    50  45  83 NE13      30.17S
RANDOLPH AFB   CLOUDY    48  45  87 N7        30.17F
SAN ANTONIO    CLOUDY    49  44  83 N10       30.17F
STINSON        CLOUDY    50  44  80 NE9       30.15F
PLEASANTON     NOT AVBL
LA GRANGE      CLOUDY    51  48  91 N6        30.16R
GIDDINGS       CLOUDY    49  47  91 N7        30.21R
$$

EAST TEXAS

CITY           SKY/WX    TMP DP  RH WIND       PRES   REMARKS
PARIS          CLOUDY    45  41  87 E6        30.22S
CLARKSVILLE    NOT AVBL
TYLER          CLOUDY    47  44  90 NE5       30.18S
LONGVIEW       CLOUDY    47  44  90 NE3       30.18S
PALESTINE      CLOUDY    47  47  97 CALM      30.20R FOG
NACOGDOCHES    CLOUDY    46  45  93 NE3       30.18S
$$

TEXAS HILL COUNTRY AND EDWARDS PLATEAU

CITY           SKY/WX    TMP DP  RH WIND       PRES   REMARKS
LLANO          CLOUDY    48  45  87 E3        30.23R
HORSESHOE BAY  CLOUDY    46  42  83 CALM      30.20S
KERRVILLE      CLOUDY    47  43  88 N6        30.18S
FREDERICKSBRG  CLOUDY    45  42  88 NE3       30.18R
ROCKSPRINGS    FOG       43  43 100 NE7       30.17S VSB 1/4 WCI  39
HONDO          CLEAR     42  40  92 NE5       30.17F WCI  39
UVALDE         SUNNY     38  37  97 N3        30.15F
DEL RIO        CLOUDY    55  50  83 E7        30.13F
$$

SOUTHEAST TEXAS

CITY           SKY/WX    TMP DP  RH WIND       PRES   REMARKS
COLLEGE STN    CLOUDY    49  46  90 N8        30.17S
CALDWELL       CLOUDY    46  46 100 N6        30.21S FOG
CROCKETT       CLOUDY    52  50  93 N5        30.20S
BRENHAM        CLOUDY    50  49  95 N8        30.17S
HUNTSVILLE     CLOUDY    49  48  97 N3        30.16S FOG
CONROE         CLOUDY    50  47  89 N8        30.16R
HOUSTON BUSH   CLOUDY    52  50  93 N10       30.14S
HOUSTON HOBBY  CLOUDY    53  51  93 N10       30.13R
PERLAND        CLOUDY    54  51  90 NE10G16   30.13S
WHARTON        CLOUDY    51  51  97 N15       30.14F
$$

THE UPPER TEXAS COAST

CITY           SKY/WX    TMP DP  RH WIND       PRES   REMARKS
ORANGE         CLOUDY    49  49  97 N6        30.13S
PORT ARTHUR    CLOUDY    50  49  96 N12       30.11S
GALVESTON      LGT RAIN  53  52  96 N22       30.11S
ANGLETON       CLOUDY    52  52 100 N14       30.11S
BAY CITY         N/A     54  54  99 N9        30.11F
$$

TEXAS COASTAL BEND, RIO GRANDE PLAINS DEEP SOUTH TEXAS

CITY           SKY/WX    TMP DP  RH WIND       PRES   REMARKS
VICTORIA       CLOUDY    52  48  86 N13G24    30.15S
BEEVILLE       CLOUDY    52  49  91 NE12      30.14S
ROCKPORT       CLOUDY    55  50  83 N14       30.12S
PORT ARANSAS   CLOUDY    56  52  88 N18G24    30.10S
PORT LAVACA    CLOUDY    52  50  94 N14       30.14S
CORPUS CHRISTI CLOUDY    55  51  86 N15       30.12S
KINGSVILLE NAS CLOUDY    57  54  89 N10       30.14R
COTULLA        MOCLDY    49  46  90 CALM      30.17R
LAREDO         NOT AVBL
BROWNSVILLE    CLOUDY    62  57  83 NW6       30.09S
PORT ISABEL    CLOUDY    63  58  83 N17       30.08S
HEBBRONVILLE   CLOUDY    56  52  88 NE5       30.14R
MCALLEN        CLOUDY    61  55  81 N9        30.12S
WESLACO        CLOUDY    60  54  79 N8        30.10F
FALFURRIAS     CLOUDY    59  53  79 NE7       30.13R
EDINBURG       CLOUDY    62  56  80 N3        30.12S
$$




U.S. Dept. of Commerce
NOAA National Weather Service
1325 East West Highway
Silver Spring, MD 20910
E-mail: w-nws.webmaster@noaa.gov
Page last modified: May 16, 2007
NATIONAL WEATHER SERVICE: for Safety, for Work, for Fun - FOR LIFE